Location: Biltmore Gardens
(41.6070°N, 83.4666°W)
Time: 15:15:17
(UTC+00:00)

Cosmos 1420 Rocket - Pass Details

Date: 14 July 2020
Orbit: 754 x 782 km, 74.0° (Epoch: 13 August)

Event Time Altitude Azimuth Distance (km) Brightness Sun altitude
Rises 04:00:46 0° 337° (NNW) 3,259 8.8 -22.7°
Reaches altitude 10° 04:03:10 10° 335° (NNW) 2,332 7.6 -22.9°
Maximum altitude 04:08:25 68° 254° (WSW) 839 4.1 -23.3°
Enters shadow 04:09:29 54° 198° (SSW) 947 4.1 -23.4°
